Location: *
(49.7115°N, 15.0136°E)
Time: 02:32:38
(UTC+00:00)

STARLINK-1056 - Pass Details

Date: 27 February 2020
Orbit: 549 x 550 km, 53.0° (Epoch: 03 April)

Event Time Altitude Azimuth Distance (km) Brightness Sun altitude
Rises 17:16:39 0° 214° (SW) 2,706 7.8 -7.0°
Reaches altitude 10° 17:19:01 10° 205° (SSW) 1,817 6.7 -7.4°
Maximum altitude 17:22:43 32° 141° (SE) 951 4.5 -8.0°
Enters shadow 17:26:15 11° 79° (E) 1,765 5.5 -8.5°
